Terminal Aerodrome Forecast
Issued by NWS

Home | Current Version | Previous Version | Graphics & Text | Print | Product List | Glossary On
Versions: 1 2 3 4 5 6 7 8 9 10 11 12 13 14
000
FTUS43 KTOP 211700
TAFFOE
TAF
KFOE 211720Z 2118/2218 35014G21KT P6SM SKC
     FM212300 04004KT P6SM SKC=

USA.gov is the U.S. government's official web portal to all federal, state and local government web resources and services.